Vorticity
5 5 5 6 7 6 5 4 5 4 6 7 7 7 7 8 8 7 6 5 6 4 4 4 3 2 4 4 7 6 8 11 10 10 8 8 7 6 5 5 5 5 5
5 5 6 6 5 6 6 7 6 5 5 5 5 8 7 7 7 8 7 5 5 3 4 4 5 3 2 2 2 3 5 8 10 11 10 8 6 6 6 5 5 5 5
6 6 6 6 6 7 7 8 8 6 7 9 8 8 8 8 7 6 3 2 4 5 6 5 5 3 2 2 2 2 1 3 4 8 12 9 8 6 6 4 5 5 6
10 10 9 8 8 9 6 6 7 6 8 7 8 9 7 7 7 6 5 6 7 6 4 4 4 4 3 3 2 2 2 2 3 5 9 9 10 8 7 7 5 5 5
9 9 8 7 6 5 7 6 6 8 7 5 6 7 8 8 7 6 6 6 6 4 4 4 5 5 4 3 3 3 3 3 4 4 6 9 11 9 7 6 7 7 6
6 6 6 6 5 6 6 6 8 6 4 5 8 6 6 8 7 5 5 5 5 5 5 4 5 5 4 4 3 4 4 4 5 6 6 8 9 9 9 9 8 7 7
4 6 5 6 6 5 6 7 9 9 10 6 6 8 10 7 7 11 10 8 10 6 4 6 6 5 5 5 5 4 4 6 6 5 5 5 8 10 10 10 8 7 6
3 4 3 1 2 4 5 7 8 8 6 6 6 5 6 7 8 9 5 10 14 7 7 6 5 6 6 4 4 5 5 6 6 7 5 6 7 8 9 10 10 8 9
12 8 7 8 10 6 6 6 9 9 11 11 9 7 4 3 3 2 7 5 6 7 6 9 12 10 6 6 4 6 6 6 7 7 5 6 6 7 8 10 11 9 10
6 10 14 13 10 8 8 9 9 8 7 1 3 5 6 7 9 10 9 9 6 3 2 -1 -3 5 5 5 8 7 7 8 8 7 7 7 6 6 7 8 9 9 8
9 3 3 6 9 9 10 11 15 8 8 -6 8 7 8 11 10 9 8 6 7 8 9 7 13 12 5 7 9 12 10 10 8 8 7 7 6 7 7 8 8 8 11
13 14 10 8 7 7 13 15 11 5 -1 -0 10 10 17 17 13 10 8 6 9 2 6 6 11 6 8 10 7 7 12 8 6 6 7 7 6 6 6 6 8 10 8
9 12 14 10 15 12 10 8 11 10 9 9 5 3 2 10 10 8 7 13 4 4 3 2 4 12 6 2 6 7 5 8 13 11 2 1 5 4 7 10 10 14 5
10 11 15 8 12 7 4 8 4 8 5 13 2 1 2 8 4 4 7 4 1 1 7 5 8 7 13 7 4 18 7 3 6 6 7 10 7 4 7 6 5 8 7
9 8 11 3 5 16 9 3 15 11 8 14 4 1 3 3 15 4 7 1 -3 5 7 7 1 0 6 0 6 12 5 11 4 11 9 11 8 9 8 10 7 4 13
23 23 -6 6 15 11 16 18 21 18 14 20 20 10 3 -2 8 -2 -10 -1 3 2 0 -1 8 -9 2 7 2 1 1 10 14 9 2 4 7 4 0 10 2 0 -7
30 31 33 41 34 25 13 -8 -4 -7 6 17 11 20 21 22 23 20 18 23 17 15 16 21 20 17 12 6 10 2 3 15 7 6 11 1 -0 2 8 9 -3 7 13
16 14 25 33 36 31 24 22 24 24 11 13 8 18 19 11 10 2 15 15 21 23 28 24 18 15 21 3 7 13 19 13 3 5 5 24 -3 7 6 6 8 4 7
12 14 14 6 -1 3 10 11 13 13 15 17 19 18 10 12 13 11 4 10 6 7 7 8 11 12 1 16 16 10 -4 15 20 6 2 1 0 1 5 4 -2 -2 -2
20 19 18 16 16 18 19 17 15 13 11 9 7 9 8 10 9 11 11 11 6 10 7 8 9 9 10 11 8 12 3 7 9 4 11 16 3 5 6 7 12 19 15
7 11 13 14 15 17 19 19 19 19 16 14 17 18 21 21 20 17 19 18 18 17 19 19 20 16 20 15 14 13 12 10 11 12 17 22 18 14 13 20 7 8 5
5 5 6 7 6 5 4 5 6 9 13 15 16 14 13 14 13 13 12 14 14 15 15 13 11 16 17 17 19 19 21 21 19 24 19 14 15 15 11 17 18 23 31
14 14 13 12 13 13 14 12 11 11 9 8 7 7 6 6 7 9 10 11 10 12 12 13 12 12 15 16 15 12 14 18 18 15 15 21 26 29 23 28 24 15 14
7 7 7 7 7 6 7 8 8 8 9 9 10 10 10 11 12 12 9 7 7 7 8 8 7 7 7 8 9 10 11 10 11 14 16 12 11 15 17 19 20 24 22
9 9 9 9 9 9 9 8 8 8 8 9 8 7 6 6 5 6 7 9 11 11 11 12 13 12 12 10 9 10 10 11 11 10 9 9 8 9 9 7 8 8 11
11 11 12 12 12 11 11 12 12 12 11 10 10 9 9 8 8 8 7 8 6 4 5 5 5 5 7 6 7 8 9 9 9 10 11 11 12 13 12 11 11 11 10
Height
5751 5751 5752 5754 5754 5754 5754 5754 5754 5754 5754 5754 5755 5755 5756 5758 5761 5762 5763 5763 5764 5765 5767 5767 5768 5768 5769 5769 5769 5770 5770 5771 5772 5772 5773 5775 5777 5778 5779 5780 5782 5783 5784
5743 5743 5743 5744 5745 5745 5745 5745 5745 5744 5744 5745 5746 5747 5747 5749 5752 5754 5754 5753 5754 5756 5758 5759 5759 5760 5761 5761 5761 5762 5762 5763 5763 5764 5765 5767 5769 5770 5770 5771 5773 5774 5775
5734 5734 5734 5734 5735 5735 5735 5736 5736 5735 5735 5736 5737 5739 5740 5741 5742 5743 5742 5742 5744 5747 5749 5750 5750 5750 5751 5752 5752 5753 5754 5754 5754 5755 5757 5757 5759 5758 5761 5762 5763 5764 5765
5724 5724 5724 5724 5724 5725 5726 5726 5725 5725 5725 5725 5727 5729 5729 5730 5731 5732 5732 5734 5736 5737 5738 5739 5740 5740 5741 5741 5742 5743 5744 5744 5744 5745 5746 5747 5748 5749 5751 5752 5752 5753 5754
5712 5713 5713 5713 5712 5713 5714 5714 5714 5714 5714 5715 5716 5717 5718 5719 5720 5721 5722 5723 5725 5726 5727 5728 5728 5729 5729 5730 5732 5732 5732 5733 5734 5734 5735 5736 5737 5738 5739 5740 5741 5742 5744
5700 5700 5701 5701 5701 5701 5701 5701 5701 5701 5702 5703 5704 5705 5706 5707 5708 5708 5710 5711 5712 5713 5714 5715 5716 5717 5717 5718 5719 5720 5721 5721 5722 5723 5723 5724 5726 5726 5727 5728 5729 5731 5733
5687 5688 5688 5688 5689 5688 5687 5687 5688 5688 5688 5688 5689 5690 5691 5692 5694 5695 5696 5697 5698 5699 5700 5701 5702 5703 5704 5706 5707 5708 5708 5709 5709 5710 5711 5712 5713 5714 5715 5716 5717 5719 5720
5671 5672 5673 5674 5673 5673 5673 5673 5673 5673 5673 5673 5674 5675 5676 5677 5678 5678 5680 5683 5684 5684 5685 5687 5687 5688 5689 5691 5692 5693 5694 5695 5696 5696 5698 5698 5699 5701 5702 5703 5705 5706 5707
5652 5654 5655 5656 5656 5657 5657 5657 5657 5657 5657 5657 5658 5659 5660 5661 5662 5663 5664 5666 5667 5669 5670 5672 5672 5673 5674 5674 5676 5677 5678 5680 5681 5682 5683 5684 5685 5687 5688 5690 5691 5693 5695
5631 5631 5634 5636 5636 5637 5639 5639 5639 5640 5640 5641 5642 5643 5643 5644 5645 5646 5647 5648 5650 5651 5653 5654 5655 5656 5657 5657 5659 5660 5661 5663 5665 5666 5667 5669 5669 5671 5673 5675 5677 5678 5680
5614 5612 5613 5614 5615 5617 5617 5619 5620 5620 5620 5621 5622 5622 5624 5625 5626 5627 5629 5630 5632 5633 5634 5636 5638 5638 5639 5640 5641 5643 5644 5646 5648 5649 5651 5652 5653 5655 5657 5659 5661 5663 5665
5591 5590 5590 5591 5592 5594 5595 5597 5598 5599 5600 5599 5600 5601 5602 5604 5606 5607 5609 5611 5613 5614 5616 5617 5619 5620 5621 5622 5623 5625 5627 5628 5629 5631 5633 5634 5636 5638 5640 5642 5644 5646 5648
5566 5566 5567 5567 5568 5569 5571 5573 5575 5576 5576 5577 5578 5580 5581 5582 5585 5586 5588 5590 5593 5595 5596 5597 5598 5600 5601 5603 5604 5606 5608 5610 5611 5613 5615 5616 5618 5620 5621 5623 5626 5628 5630
5544 5543 5544 5544 5545 5547 5548 5549 5551 5552 5553 5554 5555 5556 5558 5559 5562 5564 5566 5568 5570 5573 5574 5576 5577 5578 5580 5582 5583 5586 5588 5590 5593 5594 5596 5597 5599 5600 5601 5603 5606 5609 5611
5521 5521 5522 5522 5522 5522 5522 5524 5526 5526 5528 5529 5530 5532 5534 5536 5537 5539 5541 5543 5546 5549 5551 5553 5554 5555 5557 5559 5561 5564 5566 5568 5571 5573 5575 5577 5579 5580 5581 5584 5586 5589 5590
5496 5496 5497 5497 5498 5498 5498 5498 5499 5500 5502 5503 5505 5506 5507 5510 5513 5515 5517 5519 5521 5524 5527 5529 5530 5532 5534 5536 5538 5541 5545 5547 5549 5551 5554 5556 5558 5560 5561 5564 5566 5568 5570
5472 5471 5471 5471 5472 5472 5473 5474 5476 5475 5477 5478 5479 5480 5482 5484 5486 5489 5491 5492 5495 5497 5500 5501 5503 5505 5507 5510 5514 5520 5521 5523 5526 5529 5531 5534 5536 5538 5541 5543 5544 5547 5547
5455 5452 5451 5450 5450 5450 5450 5449 5451 5452 5452 5455 5456 5456 5458 5458 5461 5464 5466 5467 5469 5471 5473 5475 5477 5479 5481 5483 5487 5492 5494 5497 5501 5504 5506 5508 5510 5513 5516 5518 5520 5523 5525
5441 5438 5436 5434 5432 5431 5431 5430 5429 5430 5430 5431 5432 5432 5433 5435 5434 5437 5440 5442 5443 5445 5447 5449 5451 5453 5454 5455 5458 5464 5466 5468 5472 5476 5479 5482 5484 5486 5489 5492 5494 5496 5499
5426 5424 5420 5417 5415 5413 5413 5412 5411 5409 5410 5409 5409 5407 5409 5410 5410 5411 5413 5414 5416 5417 5418 5421 5423 5425 5426 5428 5431 5434 5439 5441 5445 5449 5452 5454 5456 5458 5461 5463 5467 5470 5471
5412 5409 5406 5403 5398 5396 5395 5393 5390 5389 5389 5389 5387 5386 5385 5386 5386 5387 5388 5389 5389 5391 5392 5394 5395 5397 5400 5401 5404 5407 5411 5415 5417 5420 5423 5426 5428 5430 5432 5434 5439 5442 5441
5396 5392 5390 5387 5382 5379 5377 5376 5373 5371 5370 5370 5368 5366 5364 5363 5364 5365 5364 5365 5366 5368 5369 5371 5372 5372 5374 5377 5378 5379 5382 5386 5390 5392 5394 5396 5397 5402 5404 5405 5408 5410 5411
5379 5375 5371 5368 5364 5360 5356 5355 5352 5350 5350 5349 5348 5346 5345 5343 5342 5344 5344 5345 5345 5346 5348 5349 5351 5350 5351 5353 5354 5355 5357 5359 5362 5364 5367 5369 5370 5372 5375 5378 5381 5382 5384
5361 5357 5353 5350 5346 5340 5336 5333 5330 5328 5327 5326 5324 5322 5321 5320 5320 5319 5320 5321 5321 5322 5323 5324 5326 5327 5328 5330 5330 5331 5333 5335 5338 5341 5344 5346 5348 5351 5352 5354 5356 5357 5360
5342 5336 5332 5329 5324 5319 5315 5311 5306 5303 5302 5301 5299 5297 5296 5296 5295 5293 5293 5294 5296 5296 5298 5299 5300 5303 5305 5306 5306 5308 5310 5312 5314 5316 5319 5323 5325 5328 5329 5332 5335 5337 5339
5319 5315 5309 5304 5299 5294 5290 5286 5280 5277 5274 5273 5271 5269 5268 5267 5265 5264 5266 5264 5265 5267 5268 5271 5273 5276 5279 5281 5282 5284 5286 5288 5289 5288 5293 5296 5300 5304 5307 5310 5312 5315 5317